Погода в Орше

Погода в Орше : погода сейчас, прогноз погоды и архив. Всё, что Вы хотите узнать о погоде в Орше!

Хотите узнать прогноз погоды в Орше? Тогда Вам сюда: Погода в Орше

Поиск расширенной информации на нашем сайте:

Другие новости

Новости СМИ2

Главная страница сайта

Новости сайта

03.07.2017

Напоминаем, что на нашем специализированном сайте Метеоцентр.Азия вы можете получить высокодетализированные автоматические прогнозы погоды по пунктам России, СНГ и мира в авиационном формате (включающие направление и скорость ветра, видимость, явления погоды, количество и форму облачности, нижнюю и верхнюю границу облачности).


Погода в Орше - сегодня

Время (UTC), дата Ветер
(°,м/с) 
Видим.   Явления Облачность Т
(°С)
Тd
(°С)
f(%) Тe
(°С)
Pmin
(гПа)
dP
(гПа)
Po
(мм)
O2
(г/м3)
Тmin Tmax R s Состояние
почвы
21 19.07.17 180 (Ю) 10 км    ясно 
+11.5 +10.5 94 +15  1017.3  -0.2  746  287           
00 20.07.17 тихо ()   8000 м  дымка  ясно 
+12.2 +11.1 93 +15  1016.7  -0.5  746  286           
03 20.07.17 тихо ()   8000 м  дымка{ливн. осадки}  3/0 средняя, верхняя 
[Ac As|Ci fib]
+12 +11.2 95 +15  1016  -0.7  745  286         
06 20.07.17 210 (ЮЗ) 8000 м  дымка{ливн. осадки}  4/0 средняя 
[Ac trans]
+18.4 +14.8 80 +28  1015.2  -0.3  745  278  +11.1       
09 20.07.17 160 (Ю) 10 км    9/8 1200 м средняя, верхняя 
[Cu med, cong|Ac trans|Ci fib]
+21.2 +12.6 58 +26  1014.2  -0.9  745  276           
12 20.07.17 200 (Ю) 10 км    9/9 720 м кучево-дожд. 
[Cb cap]
+21.2 +12.4 57 +26  1012.9  -1.2  744  276           
15 20.07.17 230 (ЮЗ) 10 км  в посл. час ливневой дождь  9/6 750 м кучево-дожд., средняя 
[Cb cap|Ac lent]
+18.5 +15.2 81 +29  1012.5  -0.5  743  277         
18 20.07.17 160 (Ю) 10 км  {ливн. осадки}  8/4 600 м средняя 
[Sc diur, vesp|Ac trans]
+16.8 +13.2 79 +24  1012.3  -0.3  743  279    +22.6     
21 20.07.17 тихо ()   10 км    9/0 средняя 
[Ac trans]
+14.6 +12.6 88 +20  1012.6  743  282           
00 21.07.17 170 (Ю) 10 км  {ливн. осадки}  4/0 средняя 
[Ac trans]
+13.2 +11.9 92 +18  1012.7  0.1  743  283      0.0     
03 21.07.17 тихо ()   3300 м  дымка  8/4 600 м средняя 
[Sc|Ac trans]
+11.5 +10.7 95 +14  1012.7  -0.2  743  285      0.0     
06 21.07.17 040 (СВ) 8000 м  дымка  8/3 600 м средняя, верхняя 
[Cu med, cong|Ac trans|Ci fib]
+17.8 +14.5 81 +27  1013.3  1.1  744  278  +10.4    0.0     
09 21.07.17 040 (СВ) 10 км    8/4 1000 м верхняя 
[Cu med, cong|Ci]
+20.6 +12.3 59 +25  1013.8  0.7  744  277           
12 21.07.17 360 (С) 10 км    9/4 1000 м верхняя 
[Cu med, cong|Ci]
+21.3 +11.9 55 +25  1013.8  744  276           
15 21.07.17 330 (СЗ) 10 км    8/3 1000 м средняя, верхняя 
[Cu hum|Ac trans|Ci sp]
+21.5 +10.7 50 +24  1013.8  744  276           
18 21.07.17 030 (СВ) 10 км    9/0 средняя 
[Ac As]
+19 +12 64 +24  1014.4  0.4  745  278    +22.2       
21 21.07.17 080 (В) 10 км    9/9 870 м 
[Sc]
+16.7 +14.6 87 +25  1015.2  0.6  745  280           
00 22.07.17 070 (В) 10 км    9/9 900 м 
[Sc]
+14.3 +12.5 89 +19  1014.7  -0.7  745  283           
03 22.07.17 010 (С) 10 км    10/9 930 м 
[Sc]
+13.6 +11.8 89 +19  1014  -0.6  744  283           
06 22.07.17 030 (СВ) 10 км    8/3 600 м средняя, верхняя 
[Sc|Ac trans|Cs]
+16.3 +11.8 75 +21  1014.4  0.5  744  281  +13.3         
09 22.07.17 020 (С) 10 км    8/5 1080 м средняя 
[Cu med, cong|Ac trans]
+21.4 +12 55 +25  1014.7  0.6  745  276           
12 22.07.17 350 (С) 10 км    8/6 1020 м средняя 
[Cu med, cong|Ac trans]
+22.5 +11 48 +25  1015  0.4  745  275           
15 22.07.17 020 (С) 10 км    8/5 1080 м средняя 
[Cu med, cong|Ac trans]
+22.4 +8.8 42 +22  1015.1  0.1  745  276           
18 22.07.17 340 (С) 10 км    3/3 1000 м 
[Sc diur, vesp]
+20.4 +11.3 56 +23  1015.7  0.5  746  277    +23.1       
21 22.07.17 тихо ()   10 км    3/0 средняя 
[Ac trans]
+14 +11.5 85 +17  1017  0.8  746  284           
Время (UTC), дата Ветер
(°,м/с) 
Видим.   Явления Облачность Т
(°С)
Тd
(°С)
f(%) Тe
(°С)
Pmin
(гПа)
dP
(гПа)
Po
(мм)
O2
(г/м3)
Тmin Tmax R s Состояние
почвы

Для получения пояснительной информации подведите курсор к названию столбца.

ПОГОДА в Орше - архив

Всё, что Вы хотите узнать о погоде в Орше - удобно и подробно!

Выберите нужную дату (начиная с 1 января 2015* года) и нажмите кнопку "Найти".
Будут отображены архивные сводки погоды по пункту Орша, начиная с указанной даты.


Отображать данные в формате CSV (для использования в таблицах Excel)


Внимание! Наш архив погоды предназначен исключительно для личного некоммерческого использования в познавательных целях. Если Вам необходимы официальные справки о состоянии погоды (для производственных, юридических, коммерческих и т.п. целей), обращайтесь в органы Росгидромета.

*Примечание: данная дата относится к архиву по метеостанциям СССР (Россия, СНГ, Балтия).
Архив по метеостанциям Зарубежной Европы и Азии (кроме Китая) хранится 10 дней, по другим регионам земного шара (Китай, Африка, Америка, Австралия, Океания) - 1 день.

Орша - район местоположения метеостанции


Название, широта, долгота, высота метеостанции:
Орша 55°ш. 30.4°д. 185 м над ур. моря [Беларусь]

Дополнительная информация

В oтличие oт бoльшинства пoгoдных сайтoв мы публикуем пoдрoбную метеoинфoрмацию в детальнoм прoфессиoнальнoм фoрмате.

Характеристики температуры и влажнoсти вoздуха измеряются на высoте 2 м в тени вдали oт зданий и деревьев.
Скoрoсть ветра измеряется на высoте 10 м (на урoвне рoста челoвека скoрoсть ветра ниже в 1.5-2 раза). Если метеoстанция нахoдится в гoрoде или в лесу, тo скoрoсть ветра занижена на 2-4 м/с пo сравнению с oткрытым местoм. Скoрoсть ветра над акватoриями крупных рек и oзёр, а также на вершинах хoлмoв на 2-5 м/с выше, чем в oбычных услoвиях.
Атмoсфернoе давление в разных тoчках местнoсти мoжет значительнo oтличаться oт давления на метеoстанции, в зависимoсти oт услoвий рельефа (при пoдъёме на 10 м давление пoнижается примернo на 1 мм рт.ст.).